Airfield :
LOGIN :

Register | Disclaimer

   EN    FR    IT 

 










Legend :    VFR   Marginal VFR   IFR   Intensive IFR   Very Intensive IFR
Visi :
Ceiling :
>= 8 km
>= 3000ft
5 to 8 km
1000 to 3000 ft
1500m to 5 km
500 to 1000 ft
800 to 1500m
200 to 500 ft
< 800m
< 200 ft
Symbols :   Thunderstorms  Fog  Heavy snow  Heavy precipitations  Wind > 20 kt
SIGMETs :     Misc.  Thunderstorms  Icing  Turbulence  Mountain Waves  Volcanic Ashes






- Airport Elevation : 325 ft
- IATA code : POX


LFPT - Pontoise

CURRENT METAR :
  • 021300Z AUTO VRB03KT CAVOK 15/04 Q1028

EXPIRED METARs :
  • 021230Z AUTO 13003KT 080V160 CAVOK 14/05 Q1028
  • 021200Z AUTO 13003KT 060V190 CAVOK 13/05 Q1028
  • 021130Z AUTO 13003KT 070V220 CAVOK 13/04 Q1028
  • 021100Z AUTO 13003KT 080V180 9000 NSC 11/04 Q1028
  • 021030Z AUTO 14004KT 110V190 CAVOK 10/04 Q1028

TAF N/A
ATIS : +33 1 30 30 52 08



MET'MAP, your aeronautical weather chart ! - Copyright ORBIFLY December 2007 - Disclaimer

ORBIFLY MET'MAP TEAM :

Programming & Development : Alexandra Zaïnal
Concept & original design : Baudouin d'Aumeries
Assistance for programming : Marc-Olivier Méhu
Technical & hardware support : Manuel Goepfert

Contact : metmap@orbifly.com




SOURCES & CREDITS :

   NOAA